DECAYED

STARLINK-1021, 44726 (Decayed)

Orbit data source: Space-Track

STARLINK-1021, 44726 was a payload satellite owned by SpaceX/Seattle (US) in LEO that was launched on Mon, 11 Nov 2019 UTC via an FALCON 9 launch vehicle from the Air Force Eastern Test Range (AFETR). Payload-class satellites include a variety of spacecraft equipped with specific instruments for various scientific and technological missions. These include communications satellites like Starlink; space stations such as the ISS; scientific satellites like the Hubble; Earth observation satellites from companies like Planet Labs, Umbra, and HawkEye 360; GPS; miniature CubeSats for education and research; and military/defense satellites.

Not visible in the next 10 days
Identifier
44726, 2019-074P
Orbit
Decayed
Country
Flag of USUS
Related business
Manufacturer
SpaceX/Seattle
Mission
Decayed Commercial Communications
Bus & Motor
STARLINK, Unknown motor
Mass
260 kg wet, ~248 kg dry
Launch date (UTC)
2019-11-11 (6 years ago)
Launch vehicle
FALCON 9
Launch site
Air Force Eastern Test Range (AFETR)
Object type
Payload
Rocket body
Debris
Shape & HBR
Box + 1 Pan, 10.1 m
Radar Cross Section
13.562 m², Large (>1 m²)

Expand to show TLE details & history
Last TLE update: 7 months ago

TLE from 7 months ago
0 STARLINK-1021
1 44726U 19074P   25284.33187912  .10796690  12513-4  42689-3 0  9995
2 44726  53.0257  64.7574 0003847 313.0560  47.0165 16.43857992327245
Epoch: 2025-10-11T07:57Z
TLE epoch observation values (Epoch: 2025-10-11T07:57:54.355Z)
Latitude
-0.00008°
Longitude
-74.88403°
Altitude
154.775 km
Speed
7.816 km/s
True Right ascension
04h 19m 01s
True Declination
0° 00' 00"
Sunlit
Object was in full shadow at epoch
Visualization orbit readout
Latitude
Unknown
Longitude
Unknown
Altitude
Unknown
Speed
Unknown
Apparent Right ascension
Unknown
Apparent Declination
Unknown
Sunlit
N/A
Visualization observer readout
Local Sidereal Time
16:56:43
Azimuth
Unknown
Elevation
Unknown
Doppler factor
Unknown
Orbital elements
Apogee altitude
158.365 km
Perigee altitude
153.338 km
Semi-major axis
6,533.988 km
Eccentricity
0.00038
Inclination
53.0257°
RAAN
64.7574°
Arg. of periapsis
313.056°
True anomaly
47.04876°
Mean anomaly
47.0165°
Eccentric anomaly
47.03263°
Mean motion
4.10937 °/min
Orbital period
87.6 mins
BSTAR
0.00042689
Loading maneuver chart data...
Computing Atmospheric mass density...
Loading historical data...
Loading historical data...
Loading historical data...
Loading historical data...
Loading historical data...
Loading historical data...
Loading historical data...

Documentation

Showing up to 5 results
|